Showing default

KUIPER-00388, 68922

Orbit data source: Space-Track

KUIPER-00388, 68922 is a payload satellite owned by Kuiper Systems (US) in LEO that was launched on Thu, 30 Apr 2026 UTC via an ARIANE 64 launch vehicle from the French Guiana (FRGUI). Payload-class satellites include a variety of spacecraft equipped with specific instruments for various scientific and technological missions. These include communications satellites like Starlink; space stations such as the ISS; scientific satellites like the Hubble; Earth observation satellites from companies like Planet Labs, Umbra, and HawkEye 360; GPS; miniature CubeSats for education and research; and military/defense satellites.

Loading next visibility...
Identifier
68922, 2026-098D
Orbit
LEO
Country
Flag of USUS
Related business
Manufacturer
Kuiper Systems
Mission
Operational spacecraft
Bus & Motor
KUIPER, Unknown motor
Mass
~490 kg wet, ~490 kg dry
Launch date (UTC)
2026-04-30 (1 month ago)
Launch vehicle
ARIANE 64
Launch site
French Guiana (FRGUI)
Object type
Payload
Rocket body
Debris
Shape & HBR
Unknown
Radar Cross Section
Large (>1 m²)

Expand to show TLE details & history
Last TLE update: 3 days ago

TLE from 3 days ago
0 KUIPER-00388
1 68922U 26098D   26155.10690611  .00017289  00000-0  60986-3 0  9994
2 68922  51.8742 131.8067 0022366  96.6691 263.6839 15.29120491  5329
Epoch: 2026-06-04T02:33Z
TLE epoch observation values (Epoch: 2026-06-04T02:33:56.687Z)
Latitude
-0.00002°
Longitude
-159.23544°
Altitude
480.921 km
Speed
7.625 km/s
True Right ascension
08h 47m 13s
True Declination
0° 00' 00"
Sunlit
Object was in daylight at epoch
Visualization orbit readout
Latitude
Unknown
Longitude
Unknown
Altitude
Unknown
Speed
Unknown
Apparent Right ascension
Unknown
Apparent Declination
Unknown
Sunlit
N/A
Visualization observer readout
Local Sidereal Time
03:46:34
Azimuth
Unknown
Elevation
Unknown
Doppler factor
Unknown
Orbital elements
Apogee altitude
494.242 km
Perigee altitude
463.569 km
Semi-major axis
6,857.042 km
Eccentricity
0.00224
Inclination
51.8742°
RAAN
131.8067°
Arg. of periapsis
96.6691°
True anomaly
263.42924°
Mean anomaly
263.6839°
Eccentric anomaly
263.55656°
Mean motion
3.82242 °/min
Orbital period
94.18 mins
BSTAR
0.00060986
Loading maneuver chart data...
Computing Atmospheric mass density...
Loading historical data...
Loading historical data...
Loading historical data...
Loading historical data...
Loading historical data...
Loading historical data...
Loading historical data...

Documentation

Showing up to 5 results
|